Weather History for KADM - August, 2013

Change the Weather History Date:

Sunday, August 25, 2013

  Actual Average Record
Temperature  
Mean Temperature 84 °F -  
Max Temperature 97 °F 91 °F 104 °F (1999)
Min Temperature 73 °F 70 °F 66 °F (1997)
Cooling Degree Days 19    
Growing Degree Days 34 (Base 50)    
Moisture  
Dew Point 69 °F    
Average Humidity 72    
Maximum Humidity 89    
Minimum Humidity 41    
Precipitation  
Precipitation 0.00 in - - ()
Sea Level Pressure  
Sea Level Pressure 30.12 in    
Wind  
Wind Speed 2 mph (ESE)    
Max Wind Speed 12 mph    
Max Gust Speed -    
Visibility 10 miles    
Events      
Averages and records for this station are not official NWS values.
T = Trace of Precipitation, MM = Missing Value Source: NWS Daily Summary

Daily Weather History Graph

Daily Weather History Graph

Search for Another Location

Airport or City:

Trip Planner

Search our weather history database for the weather conditions in past years. The results will help you decide how hot, cold, wet, or windy it might be!

Date:

Astronomy

Aug. 25, 2013 Rise Set
Actual Time 6:56 AM CDT 8:02 PM CDT
Civil Twilight 6:30 AM CDT 8:28 PM CDT
Nautical Twilight 5:59 AM CDT 8:59 PM CDT
Astronomical Twilight 5:27 AM CDT 9:31 PM CDT
Moon 10:51 PM CDT (8/25) 11:44 AM CDT (8/25)
Length of Visible Light 13h 58m
Length of Day
13h 06m
Waning Gibbous, 75% of the Moon is Illuminated
Aug 25
Waning Gibbous
Aug 28
Last Quarter
Sep 5
New
Sep 12
First Quarter
Sep 19
Full

Hourly Weather History & Observations

Time (CDT) Temp. Heat Index Dew Point Humidity Pressure Visibility Wind Dir Wind Speed Gust Speed Precip Events Conditions
12:15 AM 79.3 °F - 66.4 °F 64% 30.08 in 10.0 mi East 3.5 mph - N/A   Clear
12:35 AM 79.3 °F - 66.4 °F 64% 30.08 in 10.0 mi Calm Calm - N/A   Clear
12:55 AM 78.8 °F - 66.7 °F 66% 30.08 in 10.0 mi ESE 3.5 mph - N/A   Clear
1:15 AM 78.4 °F - 67.1 °F 68% 30.09 in 10.0 mi Calm Calm - N/A   Clear
1:35 AM 77.9 °F - 67.1 °F 69% 30.09 in 10.0 mi ESE 3.5 mph - N/A   Clear
1:55 AM 77.4 °F - 67.5 °F 71% 30.09 in 10.0 mi ESE 3.5 mph - N/A   Clear
2:15 AM 77.2 °F - 67.5 °F 72% 30.09 in 10.0 mi ESE 3.5 mph - N/A   Clear
2:35 AM 77.0 °F - 68.0 °F 74% 30.09 in 10.0 mi Calm Calm - N/A   Clear
2:55 AM 76.5 °F - 68.2 °F 75% 30.10 in 10.0 mi Calm Calm - N/A   Clear
3:15 AM 76.5 °F - 68.4 °F 76% 30.10 in 10.0 mi ESE 3.5 mph - N/A   Clear
3:35 AM 76.1 °F - 68.5 °F 77% 30.11 in 10.0 mi Calm Calm - N/A   Clear
3:55 AM 75.2 °F - 68.7 °F 80% 30.12 in 10.0 mi Calm Calm - N/A   Clear
4:15 AM 75.2 °F - 68.7 °F 80% 30.12 in 10.0 mi Calm Calm - N/A   Clear
4:35 AM 74.8 °F - 68.9 °F 82% 30.12 in 10.0 mi Calm Calm - N/A   Clear
4:55 AM 73.9 °F - 68.7 °F 84% 30.12 in 10.0 mi Calm Calm - N/A   Clear
5:15 AM 73.9 °F - 69.3 °F 85% 30.13 in 10.0 mi Calm Calm - N/A   Clear
5:35 AM 73.8 °F - 69.6 °F 87% 30.13 in 10.0 mi Calm Calm - N/A   Clear
5:55 AM 73.4 °F - 69.1 °F 86% 30.14 in 10.0 mi Calm Calm - N/A   Clear
6:15 AM 73.4 °F - 69.6 °F 88% 30.14 in 10.0 mi ESE 3.5 mph - N/A   Clear
6:35 AM 73.6 °F - 70.0 °F 88% 30.15 in 10.0 mi ESE 5.8 mph - N/A   Clear
7:55 AM 75.2 °F - 71.6 °F 89% 30.16 in 10.0 mi Calm Calm - N/A   Clear
8:55 AM 80.6 °F 84.6 °F 71.6 °F 74% 30.17 in 10.0 mi Calm Calm - N/A   Clear
10:55 AM 87.8 °F 93.8 °F 71.6 °F 58% 30.17 in 10.0 mi SE 8.1 mph - N/A   Clear
11:55 AM 91.4 °F 98.4 °F 71.6 °F 52% 30.16 in 10.0 mi SE 11.5 mph - N/A   Clear
12:55 PM 93.2 °F 98.8 °F 69.8 °F 46% 30.14 in 10.0 mi SE 9.2 mph - N/A   Clear
1:55 PM 95.0 °F 99.5 °F 68.0 °F 41% 30.13 in 10.0 mi ESE 11.5 mph - N/A   Clear
11:35 PM 79.7 °F - 67.3 °F 66% 30.14 in 10.0 mi ESE 4.6 mph - N/A   Clear
11:55 PM 79.2 °F - 67.3 °F 67% 30.15 in 10.0 mi ESE 3.5 mph - N/A   Clear